Weather History for Daggett-Barstow, CA

Change the Weather History Date:

Tuesday, July 30, 2013

  Actual Average Record
Temperature  
Mean Temperature 88 °F -  
Max Temperature 105 °F 104 °F 113 °F (2000)
Min Temperature 73 °F 75 °F 66 °F (1948)
Cooling Degree Days 24    
Growing Degree Days 38 (Base 50)    
Moisture  
Dew Point 41 °F    
Average Humidity 19    
Maximum Humidity 27    
Minimum Humidity 13    
Precipitation  
Precipitation 0.00 in - - ()
Sea Level Pressure  
Sea Level Pressure 29.92 in    
Wind  
Wind Speed 9 mph (West)    
Max Wind Speed 18 mph    
Max Gust Speed 24 mph    
Visibility 10 miles    
Events      
Averages and records for this station are not official NWS values.
T = Trace of Precipitation, MM = Missing Value Source: NWS Daily Summary

Daily Weather History Graph

Daily Weather History Graph

Search for Another Location

Airport:

Trip Planner

Search our weather history database for the weather conditions in past years. The results will help you decide how hot, cold, wet, or windy it might be!

Date:

Astronomy

Jul. 30, 2013 Rise Set
Actual Time 5:55 AM PDT 7:51 PM PDT
Civil Twilight 5:27 AM PDT 8:18 PM PDT
Nautical Twilight 4:53 AM PDT 8:52 PM PDT
Astronomical Twilight 4:17 AM PDT 9:28 PM PDT
Moon 12:14 AM PDT (7/30) 2:16 PM PDT (7/30)
Length of Visible Light 14h 51m
Length of Day
13h 55m
Last Quarter, 40% of the Moon is Illuminated
Jul 30
Last Quarter
Aug 6
New
Aug 14
First Quarter
Aug 20
Full
Aug 28
Last Quarter

Hourly Weather History & Observations

Time (PDT) Temp. Dew Point Humidity Pressure Visibility Wind Dir Wind Speed Gust Speed Precip Events Conditions
12:50 AM 81.0 °F 37.9 °F 21% 29.91 in 10.0 mi West 6.9 mph - N/A   Clear
1:50 AM 79.0 °F 36.0 °F 21% 29.91 in 10.0 mi West 9.2 mph - N/A   Clear
2:50 AM 77.0 °F 36.0 °F 23% 29.92 in 10.0 mi WSW 9.2 mph - N/A   Clear
3:50 AM 75.0 °F 39.0 °F 27% 29.93 in 10.0 mi West 9.2 mph - N/A   Clear
4:50 AM 75.0 °F 37.0 °F 25% 29.94 in 10.0 mi West 9.2 mph - N/A   Clear
5:50 AM 73.9 °F 37.0 °F 26% 29.95 in 10.0 mi WSW 10.4 mph - N/A   Clear
6:50 AM 75.9 °F 37.0 °F 24% 29.96 in 10.0 mi WSW 9.2 mph - N/A   Clear
7:50 AM 80.1 °F 39.0 °F 23% 29.98 in 10.0 mi West 8.1 mph - N/A   Clear
8:50 AM 84.9 °F 34.0 °F 16% 29.99 in 10.0 mi WNW 8.1 mph - N/A   Clear
9:50 AM 88.0 °F 34.0 °F 15% 29.99 in 10.0 mi NW 3.5 mph - N/A   Clear
10:50 AM 91.0 °F 35.1 °F 14% 29.98 in 10.0 mi Calm Calm - N/A   Clear
11:50 AM 96.1 °F 37.0 °F 13% 29.96 in 10.0 mi East 10.4 mph - N/A   Clear
12:50 PM 100.0 °F 41.0 °F 13% 29.93 in 10.0 mi East 10.4 mph 18.4 mph N/A   Clear
1:50 PM 102.0 °F 44.1 °F 14% 29.89 in 10.0 mi East 11.5 mph 23.0 mph N/A   Clear
2:50 PM 102.9 °F 46.0 °F 15% 29.87 in 10.0 mi ENE 17.3 mph 23.0 mph N/A   Clear
3:50 PM 104.0 °F 45.0 °F 14% 29.84 in 10.0 mi SE 12.7 mph 24.2 mph N/A   Clear
4:50 PM 104.0 °F 45.0 °F 14% 29.83 in 10.0 mi NE 6.9 mph - N/A   Clear
5:50 PM 102.9 °F 46.0 °F 15% 29.83 in 10.0 mi Variable 4.6 mph - N/A   Clear
6:50 PM 100.0 °F 44.1 °F 15% 29.84 in 10.0 mi WSW 18.4 mph - N/A   Clear
7:50 PM 96.1 °F 45.0 °F 17% 29.86 in 10.0 mi SSW 16.1 mph - N/A   Clear
8:50 PM 91.0 °F 48.0 °F 23% 29.88 in 10.0 mi NW 11.5 mph 21.9 mph N/A   Clear
9:50 PM 88.0 °F 48.9 °F 26% 29.92 in 10.0 mi West 18.4 mph - N/A   Clear
10:50 PM 86.0 °F 45.0 °F 24% 29.94 in 10.0 mi West 15.0 mph - N/A   Clear
11:50 PM 82.9 °F 45.0 °F 26% 29.95 in 10.0 mi West 12.7 mph - N/A   Clear